Temp
-10 -10 -10 -10 -10 -10 -10 -10 -10 -9 -9 -9 -8 -8 -8 -8 -8 -8 -8 -8 -8 -9 -9 -9 -9 -9 -9 -9 -10 -10 -10 -10 -10 -10 -10 -10 -11 -11 -11 -11 -11 -12 -13 -13 -14 -14 -14
-10 -10 -10 -10 -10 -10 -10 -10 -9 -9 -9 -9 -9 -9 -9 -9 -8 -8 -8 -9 -9 -9 -9 -9 -9 -9 -9 -10 -10 -10 -10 -10 -10 -11 -10 -11 -11 -11 -11 -11 -11 -11 -12 -12 -12 -13 -13
-10 -10 -10 -10 -10 -9 -9 -9 -9 -9 -9 -9 -8 -8 -8 -8 -8 -8 -8 -8 -8 -9 -9 -9 -9 -9 -10 -10 -10 -10 -10 -10 -11 -11 -11 -11 -11 -11 -11 -11 -11 -11 -12 -12 -12 -13 -13
-10 -10 -10 -10 -10 -10 -9 -9 -9 -9 -9 -9 -8 -8 -8 -8 -8 -8 -9 -9 -9 -9 -9 -9 -9 -10 -10 -10 -10 -10 -10 -11 -11 -11 -11 -11 -11 -11 -11 -12 -12 -12 -12 -12 -13 -14 -13
-10 -10 -10 -10 -10 -9 -9 -9 -9 -9 -9 -9 -9 -9 -8 -8 -8 -9 -9 -9 -9 -9 -9 -9 -9 -9 -10 -10 -10 -10 -10 -11 -11 -11 -11 -11 -11 -11 -11 -12 -12 -12 -12 -12 -13 -13 -14
-10 -10 -10 -10 -10 -10 -10 -9 -9 -9 -9 -9 -9 -9 -9 -9 -9 -9 -9 -9 -9 -9 -9 -9 -9 -10 -10 -10 -10 -10 -10 -11 -11 -11 -11 -11 -12 -12 -12 -12 -12 -12 -13 -13 -13 -13 -14
-10 -10 -10 -10 -10 -10 -10 -10 -10 -9 -9 -9 -9 -9 -9 -9 -9 -9 -9 -9 -9 -9 -9 -9 -9 -9 -10 -10 -10 -10 -11 -10 -10 -10 -11 -11 -11 -12 -12 -12 -12 -13 -13 -13 -13 -13 -13
-10 -10 -10 -10 -10 -10 -10 -10 -10 -10 -9 -9 -9 -9 -9 -9 -9 -9 -9 -9 -9 -9 -9 -10 -10 -10 -10 -10 -10 -11 -11 -11 -11 -11 -11 -11 -11 -12 -12 -12 -13 -13 -13 -13 -14 -14 -14
-10 -10 -10 -10 -10 -10 -10 -10 -10 -10 -10 -10 -10 -9 -9 -9 -9 -9 -9 -9 -9 -9 -10 -10 -10 -10 -10 -10 -10 -11 -11 -11 -11 -11 -11 -11 -11 -12 -12 -12 -13 -13 -13 -13 -13 -14 -14
-9 -10 -10 -10 -10 -10 -10 -10 -10 -10 -10 -10 -10 -10 -10 -10 -10 -10 -9 -10 -9 -9 -10 -10 -10 -10 -10 -10 -10 -10 -10 -11 -11 -11 -11 -11 -11 -12 -12 -12 -13 -13 -13 -14 -14 -14 -14
-10 -9 -10 -10 -10 -10 -10 -10 -10 -10 -10 -10 -10 -10 -9 -9 -10 -9 -9 -9 -9 -9 -9 -10 -10 -10 -10 -10 -10 -10 -10 -10 -11 -11 -11 -11 -11 -11 -12 -13 -13 -14 -14 -14 -14 -14 -14
-9 -10 -10 -10 -10 -10 -10 -10 -10 -10 -10 -11 -11 -10 -10 -10 -10 -10 -10 -10 -9 -9 -9 -10 -10 -10 -10 -10 -10 -10 -10 -10 -11 -11 -11 -11 -11 -12 -12 -13 -13 -14 -14 -15 -15 -15 -15
-9 -9 -9 -10 -10 -10 -10 -10 -10 -10 -10 -10 -10 -10 -10 -10 -10 -10 -10 -9 -9 -9 -9 -10 -10 -10 -10 -10 -10 -10 -10 -10 -11 -11 -11 -12 -12 -12 -13 -14 -14 -14 -14 -14 -15 -15 -16
-10 -10 -9 -10 -10 -10 -10 -10 -10 -10 -10 -10 -10 -10 -10 -10 -10 -10 -10 -9 -9 -9 -9 -10 -10 -10 -10 -10 -10 -10 -10 -10 -11 -11 -11 -12 -12 -12 -12 -13 -14 -15 -15 -15 -16 -16 -16
-10 -10 -10 -10 -10 -10 -10 -10 -10 -10 -10 -10 -10 -10 -10 -10 -10 -10 -10 -10 -10 -10 -10 -10 -10 -10 -10 -10 -10 -11 -11 -10 -11 -11 -11 -11 -12 -12 -13 -13 -14 -14 -15 -15 -15 -15 -15
-10 -10 -10 -10 -10 -10 -10 -10 -10 -10 -10 -10 -10 -10 -10 -10 -10 -10 -10 -10 -10 -10 -10 -10 -10 -11 -11 -11 -11 -11 -11 -11 -11 -11 -11 -12 -13 -13 -13 -13 -14 -15 -15 -16 -16 -16 -16
-11 -10 -10 -10 -10 -10 -10 -11 -11 -11 -11 -11 -11 -11 -10 -10 -10 -10 -10 -10 -10 -10 -10 -10 -10 -11 -11 -11 -11 -11 -11 -12 -12 -12 -12 -12 -12 -13 -13 -13 -15 -15 -15 -15 -16 -16 -16
-11 -11 -11 -10 -11 -11 -11 -11 -11 -11 -11 -11 -11 -11 -11 -11 -11 -10 -10 -10 -10 -10 -10 -10 -11 -11 -11 -12 -12 -12 -12 -12 -12 -12 -12 -12 -12 -13 -14 -14 -15 -15 -15 -15 -15 -16 -17
-11 -11 -11 -11 -11 -11 -11 -11 -11 -10 -11 -11 -11 -11 -11 -11 -11 -11 -11 -11 -11 -11 -11 -11 -11 -11 -12 -12 -12 -13 -13 -13 -13 -13 -13 -13 -13 -12 -13 -13 -14 -16 -16 -16 -16 -16 -16
-11 -11 -12 -12 -11 -11 -11 -11 -11 -11 -11 -11 -11 -12 -12 -12 -12 -11 -11 -11 -11 -11 -11 -11 -12 -12 -12 -13 -13 -13 -13 -13 -13 -13 -14 -13 -14 -14 -15 -15 -15 -16 -16 -16 -17 -16 -15
-12 -11 -12 -12 -12 -11 -12 -11 -11 -12 -12 -12 -12 -12 -12 -12 -12 -12 -12 -12 -12 -12 -12 -12 -12 -12 -13 -13 -13 -14 -14 -14 -14 -14 -14 -14 -14 -14 -15 -15 -15 -16 -16 -17 -17 -17 -16
-12 -12 -12 -12 -12 -12 -12 -12 -11 -11 -11 -11 -11 -12 -12 -12 -12 -12 -12 -12 -12 -12 -13 -13 -13 -13 -13 -13 -14 -14 -14 -14 -14 -15 -15 -15 -15 -14 -15 -16 -16 -16 -16 -17 -17 -17 -17
-12 -12 -12 -12 -12 -12 -12 -12 -12 -12 -12 -12 -13 -12 -12 -13 -13 -13 -13 -13 -13 -13 -13 -14 -14 -14 -14 -14 -14 -14 -14 -14 -15 -15 -15 -15 -15 -15 -14 -15 -15 -16 -16 -16 -17 -17 -17
-13 -13 -13 -13 -13 -13 -13 -13 -13 -13 -13 -12 -13 -13 -13 -13 -13 -13 -13 -13 -13 -14 -14 -14 -15 -14 -14 -14 -14 -14 -15 -15 -15 -15 -16 -16 -16 -16 -16 -16 -15 -16 -17 -17 -17 -17 -17
-14 -14 -13 -13 -13 -13 -13 -13 -13 -13 -13 -13 -13 -13 -13 -13 -13 -14 -13 -14 -14 -14 -14 -15 -16 -15 -15 -15 -15 -15 -15 -15 -15 -16 -17 -17 -17 -18 -17 -16 -16 -16 -17 -17 -17 -17 -17
-14 -14 -14 -14 -13 -13 -14 -14 -14 -14 -13 -13 -14 -13 -13 -13 -12 -14 -14 -15 -14 -15 -16 -16 -16 -16 -16 -15 -15 -16 -16 -16 -15 -16 -16 -17 -17 -17 -18 -18 -17 -18 -18 -18 -18 -17 -17
-14 -14 -14 -14 -14 -14 -14 -14 -14 -14 -14 -14 -14 -14 -13 -13 -13 -13 -13 -14 -15 -16 -16 -16 -17 -17 -16 -16 -16 -17 -17 -17 -16 -16 -16 -17 -17 -17 -18 -18 -18 -18 -18 -18 -19 -18 -18
-14 -14 -14 -14 -14 -14 -14 -14 -14 -15 -15 -14 -14 -14 -15 -14 -13 -14 -14 -14 -15 -16 -16 -16 -16 -16 -16 -17 -17 -17 -17 -17 -17 -17 -17 -18 -18 -18 -18 -18 -18 -19 -18 -18 -19 -19 -19
-15 -15 -15 -15 -15 -15 -15 -15 -15 -16 -16 -15 -15 -16 -15 -15 -14 -14 -15 -16 -16 -16 -16 -16 -17 -17 -17 -17 -18 -18 -18 -18 -18 -17 -17 -18 -18 -19 -19 -19 -19 -19 -19 -19 -19 -19 -19
Height
5872 5871 5870 5868 5867 5865 5863 5862 5861 5859 5857 5855 5854 5853 5851 5849 5847 5845 5844 5842 5840 5838 5836 5833 5831 5828 5826 5823 5820 5816 5812 5810 5807 5803 5799 5795 5792 5788 5783 5779 5776 5771 5767 5763 5758 5754 5752
5874 5874 5872 5871 5869 5866 5865 5864 5862 5861 5859 5857 5855 5853 5852 5850 5848 5846 5844 5842 5840 5837 5835 5832 5830 5827 5825 5823 5819 5815 5812 5809 5806 5803 5799 5795 5790 5787 5784 5779 5776 5772 5768 5762 5757 5755 5754
5876 5875 5874 5873 5871 5869 5867 5866 5864 5862 5860 5858 5856 5854 5853 5851 5849 5847 5845 5842 5839 5836 5834 5831 5828 5826 5824 5822 5818 5814 5811 5808 5805 5802 5798 5794 5790 5787 5783 5779 5775 5771 5768 5763 5758 5755 5753
5877 5877 5876 5875 5874 5872 5870 5868 5866 5864 5863 5861 5858 5856 5855 5853 5851 5849 5846 5843 5840 5836 5834 5831 5827 5825 5823 5819 5816 5812 5810 5806 5803 5799 5796 5792 5789 5785 5781 5778 5774 5770 5766 5762 5758 5754 5753
5878 5877 5877 5876 5875 5873 5871 5869 5868 5866 5864 5862 5861 5858 5857 5855 5853 5851 5848 5845 5842 5839 5836 5831 5828 5826 5823 5819 5815 5812 5808 5805 5801 5798 5794 5790 5786 5782 5779 5776 5772 5768 5765 5761 5757 5753 5750
5878 5878 5877 5877 5876 5874 5873 5871 5869 5867 5865 5864 5862 5860 5858 5856 5854 5852 5849 5846 5844 5841 5837 5833 5830 5829 5824 5820 5816 5812 5809 5804 5800 5796 5792 5788 5783 5780 5777 5773 5770 5767 5762 5758 5755 5753 5749
5878 5877 5877 5877 5876 5875 5873 5871 5869 5868 5866 5864 5863 5861 5859 5856 5854 5852 5850 5848 5845 5842 5838 5835 5832 5828 5825 5822 5817 5813 5808 5803 5798 5794 5790 5785 5782 5778 5775 5771 5767 5762 5758 5756 5752 5749 5746
5877 5877 5877 5877 5876 5875 5873 5871 5869 5868 5866 5865 5863 5862 5860 5858 5855 5853 5851 5847 5845 5843 5839 5835 5832 5828 5825 5821 5817 5812 5808 5804 5798 5793 5789 5786 5781 5777 5773 5769 5765 5761 5757 5752 5748 5744 5742
5875 5876 5876 5876 5876 5876 5874 5872 5870 5868 5867 5865 5864 5863 5861 5858 5856 5853 5851 5849 5844 5841 5839 5835 5831 5827 5824 5821 5816 5811 5807 5802 5797 5793 5788 5784 5780 5775 5770 5766 5762 5758 5754 5750 5746 5741 5737
5873 5873 5873 5874 5874 5874 5874 5873 5871 5869 5868 5866 5865 5863 5861 5858 5857 5853 5850 5847 5844 5840 5838 5834 5830 5827 5822 5818 5815 5809 5804 5801 5796 5791 5786 5782 5776 5771 5767 5763 5759 5754 5750 5747 5742 5739 5734
5870 5870 5870 5871 5871 5872 5872 5872 5871 5869 5868 5866 5864 5862 5860 5858 5856 5854 5851 5847 5843 5840 5835 5833 5828 5824 5820 5817 5812 5807 5802 5797 5793 5788 5785 5779 5773 5767 5762 5759 5755 5751 5745 5741 5738 5734 5732
5866 5866 5867 5867 5868 5869 5869 5869 5869 5869 5867 5865 5863 5861 5859 5857 5855 5853 5849 5845 5842 5839 5833 5829 5825 5821 5818 5814 5809 5804 5799 5795 5791 5785 5781 5776 5770 5765 5759 5754 5750 5745 5741 5735 5732 5729 5728
5863 5863 5863 5864 5865 5866 5866 5866 5866 5866 5865 5863 5861 5859 5857 5855 5853 5850 5847 5844 5841 5836 5834 5829 5825 5821 5816 5812 5806 5802 5797 5793 5789 5785 5779 5773 5767 5762 5756 5751 5746 5741 5737 5731 5726 5722 5720
5859 5859 5859 5860 5861 5862 5863 5863 5863 5863 5862 5861 5859 5857 5854 5852 5849 5847 5844 5841 5838 5834 5830 5827 5822 5818 5813 5808 5804 5799 5795 5791 5786 5781 5777 5771 5764 5758 5752 5746 5742 5738 5733 5727 5721 5717 5714
5855 5855 5855 5856 5857 5858 5859 5859 5859 5858 5857 5856 5855 5853 5851 5848 5845 5843 5841 5838 5834 5830 5827 5823 5819 5815 5810 5805 5800 5795 5792 5787 5783 5778 5774 5768 5761 5754 5750 5744 5740 5735 5729 5724 5719 5714 5707
5850 5851 5851 5852 5853 5854 5854 5855 5855 5854 5853 5851 5850 5848 5846 5844 5841 5839 5837 5833 5830 5826 5823 5819 5815 5811 5806 5802 5797 5792 5788 5784 5779 5774 5769 5764 5759 5752 5747 5742 5737 5732 5726 5720 5715 5709 5703
5845 5846 5847 5848 5849 5849 5849 5849 5849 5849 5848 5847 5846 5844 5842 5840 5837 5835 5832 5828 5825 5821 5819 5815 5811 5807 5803 5798 5794 5789 5784 5780 5774 5770 5765 5760 5755 5749 5743 5739 5734 5729 5722 5716 5710 5706 5700
5839 5841 5841 5842 5843 5844 5844 5844 5843 5843 5842 5841 5840 5839 5837 5835 5833 5830 5827 5824 5821 5818 5814 5811 5807 5802 5798 5793 5790 5784 5780 5774 5770 5765 5760 5755 5751 5745 5740 5734 5730 5726 5718 5711 5706 5702 5698
5833 5834 5835 5836 5836 5837 5837 5837 5837 5836 5836 5835 5833 5832 5831 5829 5827 5824 5822 5819 5816 5813 5810 5806 5802 5798 5793 5788 5784 5779 5775 5770 5765 5760 5755 5751 5745 5740 5735 5730 5723 5721 5715 5708 5702 5697 5694
5826 5827 5829 5829 5829 5829 5829 5829 5828 5828 5828 5827 5827 5826 5825 5822 5820 5818 5816 5813 5810 5807 5803 5799 5796 5792 5787 5783 5780 5775 5770 5765 5760 5755 5750 5745 5742 5736 5731 5726 5718 5716 5711 5703 5697 5693 5686
5817 5820 5821 5822 5823 5823 5823 5823 5822 5822 5821 5821 5819 5819 5817 5816 5814 5811 5809 5806 5803 5800 5796 5793 5789 5786 5781 5778 5775 5770 5766 5760 5755 5750 5745 5740 5736 5730 5727 5720 5713 5712 5707 5700 5693 5689 5681
5808 5810 5812 5813 5814 5815 5815 5815 5815 5815 5814 5813 5812 5811 5810 5808 5806 5803 5801 5798 5795 5792 5789 5785 5782 5778 5774 5770 5767 5763 5758 5754 5750 5745 5739 5734 5729 5724 5721 5714 5708 5707 5702 5695 5687 5682 5676
5798 5800 5802 5803 5804 5805 5806 5806 5806 5806 5805 5803 5802 5802 5801 5800 5798 5795 5794 5789 5786 5783 5780 5776 5774 5770 5765 5762 5759 5755 5751 5746 5741 5736 5730 5725 5719 5715 5712 5707 5700 5700 5695 5688 5682 5675 5669
5788 5790 5790 5792 5793 5795 5795 5795 5795 5795 5795 5795 5794 5793 5792 5791 5788 5785 5783 5779 5776 5773 5770 5765 5762 5759 5758 5754 5751 5747 5743 5739 5733 5727 5723 5717 5711 5706 5703 5699 5692 5690 5684 5678 5674 5668 5661
5776 5778 5779 5780 5781 5782 5784 5784 5784 5784 5783 5783 5782 5782 5782 5782 5780 5775 5771 5768 5765 5760 5759 5756 5751 5749 5746 5744 5741 5738 5736 5732 5727 5721 5714 5708 5702 5696 5692 5688 5684 5684 5677 5670 5665 5662 5651
5764 5766 5767 5769 5770 5771 5772 5773 5772 5771 5772 5772 5771 5769 5769 5769 5771 5766 5761 5757 5754 5750 5749 5746 5741 5738 5736 5733 5730 5726 5723 5720 5715 5711 5706 5699 5692 5687 5682 5677 5670 5670 5665 5659 5652 5649 5641
5751 5753 5754 5756 5758 5758 5759 5759 5759 5758 5759 5759 5759 5756 5755 5756 5758 5753 5750 5747 5742 5739 5736 5735 5731 5729 5725 5723 5720 5718 5713 5710 5706 5701 5698 5691 5683 5677 5672 5663 5663 5658 5652 5646 5641 5637 5630
5736 5739 5741 5742 5743 5744 5745 5744 5745 5744 5744 5744 5745 5742 5740 5740 5744 5741 5737 5735 5732 5729 5725 5723 5719 5718 5714 5712 5709 5705 5701 5697 5694 5690 5685 5680 5671 5667 5660 5651 5648 5646 5640 5635 5628 5622 5618
5721 5723 5725 5727 5729 5729 5729 5729 5729 5729 5729 5730 5732 5728 5725 5724 5729 5728 5724 5726 5722 5718 5715 5709 5706 5705 5701 5699 5696 5690 5688 5683 5682 5678 5676 5667 5660 5654 5652 5643 5638 5632 5627 5621 5615 5610 5605
Wind_Speed
15 16 17 17 18 17 15 15 17 19 17 12 11 11 12 13 13 14 13 13 13 12 11 9 9 11 15 17 18 20 21 21 21 22 22 21 19 19 20 21 22 22 25 27 29 15 13
14 15 16 18 19 17 15 15 16 16 16 16 15 13 12 13 12 13 14 15 15 14 15 14 13 13 15 17 17 19 21 21 22 21 22 23 20 18 18 20 22 24 27 32 24 14 11
12 13 14 17 20 18 16 15 16 18 17 17 18 17 16 15 15 17 17 16 15 15 16 15 14 15 16 18 18 19 20 21 21 22 22 23 22 20 18 20 21 22 24 29 18 9 8
10 10 10 15 17 19 18 18 17 16 17 16 17 18 16 17 17 17 18 20 20 19 18 15 12 12 14 15 16 19 19 20 22 22 22 23 22 21 20 19 21 21 22 26 18 12 10
7 7 8 11 13 15 16 17 17 16 13 14 15 16 15 16 16 15 18 20 21 22 20 18 17 15 15 15 17 18 19 20 22 22 22 22 22 21 20 20 19 21 21 21 23 17 15
4 5 6 8 11 13 15 16 15 15 14 12 13 17 16 13 14 15 18 20 21 23 23 21 18 19 18 19 20 21 22 22 22 21 21 21 21 22 22 22 23 21 21 22 21 18 22
2 3 3 3 6 11 14 16 15 13 12 10 11 15 17 15 16 18 17 20 25 24 23 21 18 20 19 20 22 23 23 22 23 22 22 21 22 23 23 23 22 24 23 21 21 22 19
5 4 5 3 2 7 11 14 16 14 10 9 9 12 15 18 17 17 16 22 24 24 24 23 19 20 21 21 24 25 26 25 23 24 24 25 23 24 25 25 26 25 25 26 23 22 23
8 7 8 7 4 2 8 12 15 15 14 13 11 12 14 16 15 16 19 23 25 25 26 22 21 21 22 25 26 27 27 27 26 25 26 26 26 24 25 26 27 27 26 27 29 27 25
12 11 10 11 10 5 4 9 12 14 15 13 12 13 16 18 18 17 20 24 25 27 27 25 22 21 22 26 27 28 27 26 26 27 27 28 28 28 28 28 29 30 31 30 30 30 31
13 12 12 13 14 11 7 7 8 11 13 15 14 13 15 17 17 18 22 22 25 27 28 28 24 20 22 26 29 31 29 27 26 28 28 28 30 30 30 30 29 29 30 31 31 30 31
14 13 14 15 17 14 11 10 9 10 12 13 15 17 18 19 19 21 24 23 26 28 30 31 26 21 24 28 32 33 30 26 25 28 28 30 30 31 32 30 29 28 29 30 30 32 30
16 15 16 17 19 16 15 12 12 13 14 15 16 18 21 21 22 23 25 25 27 26 29 30 28 25 26 30 32 30 27 24 24 26 29 31 29 31 31 32 32 31 31 33 34 35 33
18 17 16 18 20 18 18 17 17 18 18 19 18 19 21 23 24 24 24 25 25 25 24 28 30 30 29 29 29 27 26 26 26 29 32 32 33 33 34 35 34 31 31 32 34 35 34
20 18 17 19 22 22 21 20 20 20 22 23 23 24 25 24 25 23 24 22 24 25 26 28 30 33 32 29 27 25 26 29 30 31 34 36 35 34 35 36 35 33 33 34 35 35 35
21 19 18 20 23 24 24 23 23 24 25 27 27 26 26 26 24 24 24 24 25 26 24 27 28 30 32 29 26 28 32 34 32 33 35 35 33 36 36 38 34 33 34 35 35 36 38
23 22 22 22 25 27 27 27 27 27 28 30 30 27 27 27 27 26 26 26 28 26 26 29 27 29 32 28 28 33 36 33 31 34 36 36 35 35 35 38 34 32 33 35 37 37 38
24 24 25 26 27 28 30 30 31 31 31 31 31 29 28 28 27 28 29 29 30 26 30 28 28 29 30 30 32 34 30 30 31 35 36 35 36 37 35 37 34 29 32 35 37 37 35
29 28 27 28 29 29 30 31 32 32 32 31 30 29 29 28 28 28 29 30 27 29 33 30 29 30 31 31 32 30 30 30 33 36 37 37 37 40 37 40 40 31 31 36 37 37 34
34 33 33 33 32 33 34 34 34 34 34 32 30 29 30 29 29 29 29 29 29 32 35 32 32 31 33 31 34 36 33 32 34 35 36 37 36 37 36 37 39 29 31 37 37 36 39
38 39 38 37 37 37 37 37 36 36 35 34 34 32 32 31 29 29 29 31 34 36 35 34 33 34 35 35 36 34 31 31 34 35 37 37 35 38 34 36 38 31 33 37 39 35 39
40 40 40 40 41 41 40 40 40 40 39 39 38 36 34 32 30 32 34 36 36 37 38 37 37 35 37 36 38 37 34 36 35 36 38 38 37 39 35 37 39 33 32 36 38 39 40
42 41 42 42 43 43 43 43 43 43 42 42 40 40 38 36 34 35 36 39 39 41 41 40 39 38 38 39 39 39 37 38 40 38 43 41 40 40 41 40 41 38 35 39 40 42 43
45 44 43 43 44 46 47 48 46 47 46 46 45 42 41 39 39 41 42 44 43 43 42 41 40 42 36 38 39 39 40 39 40 41 43 42 40 42 44 42 43 41 41 36 38 44 46
50 49 48 48 47 46 47 47 48 48 47 46 47 45 45 44 44 44 47 46 45 46 43 42 43 43 38 39 41 43 43 42 42 43 43 42 40 42 45 46 47 44 38 42 48 46 45
55 53 52 52 52 51 50 51 53 54 53 52 51 51 49 49 49 51 48 45 45 42 42 43 46 43 41 40 42 44 47 47 49 49 49 45 47 47 46 50 52 44 42 48 50 44 46
63 61 59 57 57 56 56 57 58 59 60 60 58 59 62 61 58 57 55 51 46 44 42 43 44 42 41 40 41 45 49 49 49 52 47 49 51 49 50 52 53 50 50 51 48 46 44
67 66 64 63 64 63 63 63 63 62 59 60 59 61 63 63 61 59 54 51 48 44 45 44 44 41 42 44 45 47 51 52 52 49 54 52 54 51 52 57 57 54 54 49 44 42 44
71 69 70 69 67 66 65 66 64 65 64 64 64 60 60 59 57 53 47 45 49 47 45 46 44 40 45 47 45 49 52 52 50 55 50 55 55 53 53 57 52 51 50 47 45 45 45
Wind_Direction
68 59 47 40 37 42 49 47 43 45 45 43 36 37 35 29 26 24 18 13 9 7 2 11 14 12 6 0 2 359 3 4 3 4 358 352 349 349 347 349 348 351 353 346 342 3 24
63 51 43 35 33 36 46 47 42 43 47 45 42 41 35 29 21 8 0 360 357 348 349 347 339 342 346 349 347 346 347 352 357 356 355 354 350 342 339 341 346 351 351 348 353 9 11
53 46 42 36 39 42 41 39 43 45 43 41 45 50 52 44 40 40 33 23 10 2 350 340 336 333 335 336 336 335 336 338 343 347 348 349 353 346 338 337 344 341 343 348 344 346 347
49 42 42 40 39 42 44 42 42 42 45 45 43 45 47 44 40 40 37 30 24 20 12 6 4 353 347 344 342 343 342 335 334 335 339 342 347 346 342 338 335 337 332 338 334 302 308
37 31 35 36 37 34 33 36 37 36 34 40 46 44 43 37 32 33 27 22 24 20 17 18 15 11 4 356 354 351 349 345 342 337 333 335 335 337 341 338 331 330 332 329 337 301 290
27 17 25 29 35 41 39 35 34 33 31 37 38 38 35 32 27 23 24 25 20 17 17 16 14 9 8 2 360 357 354 354 352 348 340 333 329 329 331 335 334 330 326 327 324 310 284
331 352 344 8 34 44 37 36 31 30 32 29 28 26 27 22 13 7 14 16 14 11 8 9 11 10 4 3 2 357 355 354 352 351 346 339 333 327 325 322 325 325 324 325 321 320 323
288 301 295 268 8 36 33 28 29 25 30 29 17 19 24 20 21 25 15 13 7 7 3 359 359 2 359 353 349 352 353 352 349 349 347 345 340 334 325 317 316 318 324 323 320 316 317
277 283 283 252 247 8 19 21 24 24 25 28 22 9 8 8 10 14 12 6 6 4 2 355 352 348 349 350 346 343 341 344 345 347 345 347 345 342 334 323 315 309 313 317 321 319 317
272 267 261 245 238 239 338 359 13 20 21 19 7 360 1 0 358 354 355 356 356 356 354 348 346 343 343 345 346 346 339 339 344 346 347 346 343 343 342 336 330 319 315 312 312 315 317
274 267 258 243 235 239 269 311 349 3 12 13 8 355 355 358 350 347 345 346 352 351 353 349 343 338 338 339 342 343 340 338 343 343 348 346 344 343 340 341 339 331 323 313 309 305 312
274 260 256 246 231 241 258 287 311 329 342 355 355 348 347 348 353 344 343 345 345 349 353 354 348 340 339 340 337 336 338 339 339 341 346 343 344 343 341 343 339 337 333 326 319 310 310
274 264 255 246 231 241 253 273 294 309 321 330 336 339 340 339 341 343 349 349 349 342 343 345 347 340 334 333 334 337 339 339 340 341 342 342 343 342 343 344 344 342 341 335 330 326 320
269 265 257 246 232 242 254 266 281 295 305 312 320 325 328 329 332 336 342 343 346 346 339 341 342 338 332 333 334 339 342 338 339 337 338 342 339 343 344 342 344 345 343 336 332 330 325
264 264 261 247 237 242 254 265 276 287 297 305 312 316 320 323 325 328 334 337 340 341 342 339 338 338 335 334 333 334 339 336 334 334 338 340 340 340 341 341 342 345 340 335 336 335 333
263 265 264 254 246 249 257 267 276 284 292 299 304 309 314 317 318 320 325 329 331 331 338 338 333 336 334 332 333 335 336 331 330 332 335 338 341 339 339 338 338 342 336 335 338 337 336
259 262 263 262 257 257 260 266 273 280 288 294 298 302 308 311 312 313 317 322 325 324 328 330 328 330 329 328 330 330 329 327 330 332 337 336 339 338 334 335 335 342 334 330 333 336 337
258 260 262 264 264 267 269 271 276 281 285 289 295 300 304 307 308 309 313 317 319 318 325 325 325 326 326 322 324 322 325 326 330 331 334 336 335 333 333 331 333 341 332 328 328 334 336
262 263 264 264 266 269 271 274 277 280 284 288 292 296 299 302 305 308 311 315 315 315 320 318 317 316 321 320 323 321 321 323 327 328 329 330 333 331 327 328 329 335 329 324 323 333 333
264 267 268 269 267 267 269 272 275 277 280 283 286 290 294 299 303 307 311 313 312 312 313 311 311 308 314 313 320 316 317 319 323 325 326 327 330 326 325 325 321 331 329 322 319 326 325
263 267 270 272 273 273 275 276 277 279 283 286 290 292 295 299 302 305 306 307 309 308 306 307 307 304 305 307 312 312 312 314 321 322 323 323 322 326 323 323 318 324 324 322 317 317 320
264 265 268 271 273 275 276 277 278 281 283 286 289 291 293 297 298 301 307 306 306 306 304 302 303 303 302 303 309 308 308 313 317 321 320 320 318 319 324 318 317 318 318 320 320 320 320
262 263 265 269 271 274 275 277 279 280 283 285 288 290 292 294 293 295 304 305 305 304 299 298 299 298 299 301 308 307 306 310 313 316 321 318 315 313 319 315 313 316 317 313 313 316 315
264 264 265 266 268 272 273 275 276 278 281 284 286 286 287 289 292 295 299 302 299 297 295 294 292 295 295 299 302 303 304 305 310 312 317 315 309 308 311 311 308 317 313 308 308 312 310
263 266 269 270 271 272 274 275 276 278 282 285 286 284 285 287 289 296 298 299 297 296 295 293 289 293 296 296 297 299 302 302 302 306 315 311 306 306 308 310 309 310 312 307 308 308 304
265 266 269 271 273 274 275 275 276 280 282 283 283 284 284 287 291 293 294 293 294 292 293 290 290 294 295 297 297 300 302 305 304 306 309 310 307 304 303 303 307 314 311 307 307 306 302
264 267 268 270 270 271 274 275 275 276 279 280 281 284 286 287 290 291 293 293 291 290 290 292 289 290 292 295 296 296 297 303 299 306 308 307 304 302 305 304 306 310 309 311 307 304 303
262 264 267 269 269 271 273 275 278 278 280 282 283 286 285 286 287 290 290 288 289 289 287 288 287 287 289 294 297 296 296 300 303 305 310 307 302 301 302 303 307 308 307 302 302 303 306
261 263 267 268 269 272 274 275 278 278 279 278 281 282 282 285 286 284 281 285 287 289 288 285 285 286 289 295 294 294 297 296 302 303 306 301 298 295 300 302 302 304 303 302 305 305 305